Regional Weather Roundup
Issued by NWS

Home | Current Version | Previous Version | Text Only | Print | Product List | Glossary On
Versions: 1 2 3 4 5 6 7 8 9 10 11 12 13 14 15 16 17 18 19 20 21 22 23 24 25 26 27 28 29 30 31 32 33 34 35 36 37 38 39 40 41 42 43 44 45 46 47 48 49 50
000
ASUS44 KOUN 281210
RWROK

WEATHER ROUNDUP FOR OKLAHOMA
NATIONAL WEATHER SERVICE NORMAN OK
700 AM CDT SUN AUG 28 2016

NOTE: "FAIR" INDICATES FEW OR NO CLOUDS BELOW 12,000 FEET WITH NO
      SIGNIFICANT WEATHER AND/OR OBSTRUCTIONS TO VISIBILITY.

OKZ001>007-009>012-014-015-017-281300-
NORTHWEST OKLAHOMA AND THE PANHANDLE

CITY           SKY/WX    TMP DP  RH WIND       PRES   REMARKS
GAGE           PTCLDY    66  64  93 SW7       30.11F
6HR MIN TEMP:  65; 6HR MAX TEMP:  67;

GUYMON         MOCLDY    62  59  90 S7        30.10S
ENID/WOODRING  MOCLDY    72  72 100 SE6       30.07S
$$

OKZ016-021>023-033>039-044-045-281300-
SOUTHWEST OKLAHOMA

CITY           SKY/WX    TMP DP  RH WIND       PRES   REMARKS
LAWTON/REGL    CLOUDY    72  68  87 CALM      30.08R
6HR MIN TEMP:  69; 6HR MAX TEMP:  74;

LAWTON/FT SILL MOCLDY    70  69  97 CALM      30.07R
FREDERICK      CLEAR     70  68  93 NE7       30.05R
CLINTON        CLEAR     69  64  84 CALM      30.13R
HOBART         CLEAR     68  65  90 NE5       30.10R
ALTUS AFB      CLEAR     68  65  90 E3        30.08R
$$

OKZ018>020-024>031-281300-
CENTRAL OKLAHOMA

CITY           SKY/WX    TMP DP  RH WIND       PRES   REMARKS
OKLAHOMA CITY  CLOUDY    71  68  90 S3        30.09R
6HR MIN TEMP:  69; 6HR MAX TEMP:  74;

OKC/WILEY POST PTCLDY    72  68  87 S6        30.09R
OKC/TINKER AFB CLOUDY    72  69  90 SE6       30.09R
STILLWATER     CLOUDY    73  71  93 SE3       30.08R
GUTHRIE        CLOUDY    72  70  93 S3        30.08R
$$

OKZ008-013-054>072-281300-
NORTHEAST OKLAHOMA

CITY           SKY/WX    TMP DP  RH WIND       PRES   REMARKS
TULSA          CLOUDY    76  74  93 CALM      30.08R
6HR MIN TEMP:  75; 6HR MAX TEMP:  80;

TULSA/JONES    CLOUDY    74  74 100 CALM      30.09R
PONCA CITY     CLOUDY    72  69  90 CALM      30.08R
BARTLESVILLE   MOCLDY    69  67  93 CALM      30.11R FOG
MUSKOGEE       CLEAR     73  71  93 CALM      30.10R
$$

OKZ032-040>043-046>053-073>077-281300-
SOUTH CENTRAL/SOUTHEAST OKLAHOMA

CITY           SKY/WX    TMP DP  RH WIND       PRES   REMARKS
ARDMORE/DWNTWN CLEAR     72  68  88 CALM      30.07R
MCALESTER      CLEAR     72  69  90 CALM      30.10R
$$




USA.gov is the U.S. government's official web portal to all federal, state and local government web resources and services.